�������l�o���
Date,Time,MP-1(��Sv/h),MP-2(��Sv/h),MP-3(��Sv/h),MP-4(��Sv/h),MP-5(��Sv/h),MP-6(��Sv/h),MP-7(��Sv/h),MP-8(��Sv/h),����,����(m/s),���J
2020/11/29,00:00,0.672,0.970,0.611,1.207,0.857,0.381,0.675,0.635,��,4.3,��
2020/11/29,00:10,0.672,0.970,0.610,1.208,0.858,0.384,0.676,0.637,��쐼,1.7,��
2020/11/29,00:20,0.672,0.972,0.612,1.208,0.860,0.382,0.676,0.636,���쐼,2.8,��
2020/11/29,00:30,0.673,0.969,0.614,1.209,0.858,0.383,0.676,0.635,�쐼,2.8,��
2020/11/29,00:40,0.671,0.971,0.611,1.210,0.858,0.382,0.677,0.636,��,1.9,��
2020/11/29,00:50,0.672,0.971,0.612,1.209,0.858,0.382,0.675,0.637,�쐼,2.8,��
2020/11/29,01:00,0.671,0.971,0.612,1.208,0.858,0.382,0.676,0.637,���쐼,4.6,��
2020/11/29,01:10,0.672,0.971,0.612,1.210,0.858,0.382,0.677,0.636,���쐼,4.8,��
2020/11/29,01:20,0.672,0.971,0.612,1.208,0.862,0.382,0.678,0.637,��,2.3,��
2020/11/29,01:30,0.671,0.973,0.612,1.210,0.860,0.382,0.677,0.637,���k��,2.5,��
2020/11/29,01:40,0.672,0.970,0.614,1.207,0.860,0.382,0.676,0.635,�k��,3.6,��
2020/11/29,01:50,0.672,0.970,0.611,1.209,0.859,0.380,0.676,0.637,�k��,4.6,��
2020/11/29,02:00,0.671,0.973,0.613,1.209,0.858,0.382,0.677,0.637,�k��,5.1,��
2020/11/29,02:10,0.673,0.971,0.612,1.209,0.860,0.383,0.678,0.636,�k��,3.8,��
2020/11/29,02:20,0.672,0.971,0.613,1.209,0.859,0.382,0.678,0.636,�k�k��,3.7,��
2020/11/29,02:30,0.673,0.972,0.612,1.210,0.859,0.382,0.675,0.636,�k�k��,2.2,��
2020/11/29,02:40,0.672,0.972,0.613,1.208,0.859,0.384,0.677,0.635,��,1.4,��
2020/11/29,02:50,0.671,0.972,0.613,1.207,0.860,0.382,0.676,0.637,��,2.0,��
2020/11/29,03:00,0.671,0.969,0.612,1.209,0.858,0.383,0.678,0.637,���쐼,2.6,��
2020/11/29,03:10,0.673,0.971,0.614,1.209,0.859,0.383,0.677,0.636,��쐼,2.3,��
2020/11/29,03:20,0.673,0.971,0.613,1.208,0.859,0.382,0.677,0.636,��쐼,2.3,��
2020/11/29,03:30,0.672,0.969,0.613,1.209,0.858,0.382,0.675,0.637,���쓌,0.6,��
2020/11/29,03:40,0.673,0.970,0.613,1.208,0.860,0.383,0.678,0.636,�쐼,2.0,��
2020/11/29,03:50,0.673,0.971,0.612,1.210,0.860,0.383,0.675,0.638,���쐼,3.1,��
2020/11/29,04:00,0.673,0.971,0.612,1.207,0.860,0.382,0.675,0.636,���쐼,4.9,��
2020/11/29,04:10,0.672,0.971,0.610,1.209,0.858,0.383,0.676,0.636,��,6.8,��
2020/11/29,04:20,0.672,0.971,0.611,1.209,0.858,0.382,0.677,0.636,��,7.4,��
2020/11/29,04:30,0.672,0.970,0.613,1.210,0.859,0.383,0.676,0.636,��,7.4,��
2020/11/29,04:40,0.671,0.970,0.613,1.207,0.858,0.383,0.676,0.638,��,8.4,��
2020/11/29,04:50,0.673,0.970,0.612,1.210,0.860,0.383,0.678,0.637,���k��,9.7,��
2020/11/29,05:00,0.672,0.971,0.612,1.210,0.860,0.383,0.677,0.636,���k��,11.3,��
2020/11/29,05:10,0.673,0.970,0.611,1.207,0.860,0.383,0.677,0.638,���k��,8.5,��
2020/11/29,05:20,0.672,0.969,0.615,1.209,0.859,0.384,0.678,0.638,�k��,6.2,��
2020/11/29,05:30,0.674,0.970,0.613,1.211,0.858,0.382,0.677,0.637,���k��,8.5,��
2020/11/29,05:40,0.672,0.971,0.614,1.209,0.858,0.382,0.676,0.638,���k��,9.1,��
2020/11/29,05:50,0.673,0.973,0.612,1.210,0.859,0.383,0.679,0.637,���k��,10.3,��
2020/11/29,06:00,0.673,0.973,0.612,1.210,0.857,0.384,0.680,0.636,��,7.3,��
2020/11/29,06:10,0.672,0.971,0.613,1.208,0.860,0.382,0.678,0.638,��,6.2,��
2020/11/29,06:20,0.672,0.972,0.612,1.209,0.857,0.383,0.677,0.637,��,6.8,��
2020/11/29,06:30,0.675,0.969,0.611,1.211,0.859,0.382,0.679,0.637,��,6.7,��
2020/11/29,06:40,0.673,0.970,0.614,1.210,0.861,0.382,0.679,0.637,���k��,6.5,��
2020/11/29,06:50,0.672,0.972,0.613,1.210,0.860,0.385,0.678,0.639,�k��,4.5,��
2020/11/29,07:00,0.673,0.970,0.612,1.209,0.860,0.383,0.677,0.637,�k��,5.3,��
2020/11/29,07:10,0.674,0.972,0.613,1.209,0.860,0.383,0.679,0.638,���k��,7.3,��
2020/11/29,07:20,0.673,0.970,0.613,1.211,0.859,0.383,0.677,0.638,���k��,7.8,��
2020/11/29,07:30,0.673,0.971,0.613,1.208,0.860,0.382,0.677,0.638,���k��,8.5,��
2020/11/29,07:40,0.674,0.970,0.613,1.210,0.859,0.384,0.678,0.638,���k��,9.5,��
2020/11/29,07:50,0.673,0.971,0.614,1.210,0.860,0.384,0.679,0.638,���k��,8.5,��
2020/11/29,08:00,0.673,0.972,0.612,1.210,0.859,0.384,0.679,0.636,���k��,9.3,��
2020/11/29,08:10,0.673,0.972,0.613,1.209,0.860,0.382,0.680,0.637,���k��,7.5,��
2020/11/29,08:20,0.674,0.971,0.611,1.210,0.858,0.384,0.679,0.636,�k��,6.0,��
2020/11/29,08:30,0.673,0.971,0.612,1.208,0.859,0.382,0.680,0.638,�k��,5.5,��
2020/11/29,08:40,0.673,0.973,0.614,1.210,0.861,0.383,0.677,0.639,�k��,5.3,��
2020/11/29,08:50,0.673,0.971,0.613,1.210,0.861,0.382,0.679,0.637,�k��,6.2,��
2020/11/29,09:00,0.673,0.973,0.612,1.212,0.860,0.384,0.679,0.638,�k�k��,4.9,��
2020/11/29,09:10,0.674,0.972,0.614,1.212,0.860,0.383,0.679,0.637,�k��,3.4,��
2020/11/29,09:20,0.673,0.973,0.611,1.209,0.860,0.383,0.678,0.638,�k��,2.0,��
2020/11/29,09:30,0.674,0.973,0.614,1.211,0.860,0.383,0.678,0.637,�k,1.1,��
2020/11/29,09:40,0.674,0.976,0.613,1.211,0.861,0.382,0.679,0.637,�k�k��,1.5,��
2020/11/29,09:50,0.675,0.970,0.614,1.211,0.859,0.382,0.676,0.637,�k��,1.5,��
2020/11/29,10:00,0.674,0.973,0.613,1.209,0.859,0.382,0.679,0.638,�k�k��,2.5,��
2020/11/29,10:10,0.675,0.974,0.614,1.210,0.863,0.382,0.677,0.637,�k��,1.7,��
2020/11/29,10:20,0.675,0.973,0.614,1.211,0.861,0.383,0.678,0.638,�k,1.7,��
2020/11/29,10:30,0.677,0.971,0.612,1.209,0.861,0.382,0.678,0.637,�k��,2.0,��
2020/11/29,10:40,0.675,0.976,0.612,1.211,0.861,0.384,0.679,0.636,��쐼,0.8,��
2020/11/29,10:50,0.676,0.974,0.616,1.211,0.862,0.384,0.678,0.637,�k��,0.9,��
2020/11/29,11:00,0.674,0.974,0.614,1.209,0.861,0.385,0.676,0.639,�k�k��,1.5,��
2020/11/29,11:10,0.676,0.972,0.615,1.211,0.861,0.385,0.676,0.638,��,3.0,��
2020/11/29,11:20,0.674,0.971,0.617,1.211,0.863,0.384,0.678,0.638,��,6.4,��
2020/11/29,11:30,0.676,0.972,0.616,1.210,0.864,0.383,0.675,0.639,��,6.5,��
2020/11/29,11:40,0.675,0.972,0.612,1.212,0.863,0.383,0.677,0.639,��,7.0,��
2020/11/29,11:50,0.675,0.973,0.613,1.211,0.863,0.383,0.678,0.637,��,7.3,��
2020/11/29,12:00,0.674,0.974,0.614,1.212,0.861,0.384,0.678,0.638,��,7.0,��
2020/11/29,12:10,0.674,0.973,0.613,1.211,0.861,0.384,0.677,0.640,��,4.9,��
2020/11/29,12:20,0.675,0.970,0.614,1.214,0.861,0.386,0.678,0.639,��,5.1,��
2020/11/29,12:30,0.674,0.972,0.612,1.213,0.861,0.385,0.680,0.639,�k�k��,2.2,��
2020/11/29,12:40,0.675,0.970,0.612,1.212,0.862,0.384,0.678,0.637,�k��,3.8,��
2020/11/29,12:50,0.674,0.973,0.614,1.212,0.860,0.385,0.678,0.636,�k��,3.7,��
2020/11/29,13:00,0.674,0.973,0.615,1.212,0.859,0.385,0.678,0.636,�k��,4.4,��
2020/11/29,13:10,0.674,0.972,0.614,1.213,0.861,0.385,0.677,0.637,�k�k��,2.2,��
2020/11/29,13:20,0.675,0.974,0.613,1.210,0.862,0.385,0.679,0.635,�k,2.0,��
2020/11/29,13:30,0.676,0.971,0.614,1.213,0.862,0.384,0.677,0.636,���k��,1.7,��
2020/11/29,13:40,0.676,0.973,0.616,1.213,0.863,0.384,0.679,0.636,���k��,2.5,��
2020/11/29,13:50,0.677,0.972,0.614,1.210,0.862,0.385,0.679,0.635,��,3.0,��
2020/11/29,14:00,0.675,0.971,0.614,1.212,0.864,0.386,0.679,0.635,���쓌,3.9,��
2020/11/29,14:10,0.676,0.972,0.614,1.212,0.865,0.385,0.680,0.636,��,3.7,��
2020/11/29,14:20,0.675,0.973,0.615,1.211,0.864,0.384,0.678,0.636,��쓌,6.3,��
2020/11/29,14:30,0.676,0.974,0.615,1.213,0.864,0.385,0.679,0.636,��쓌,6.9,��
2020/11/29,14:40,0.674,0.972,0.616,1.212,0.863,0.383,0.678,0.637,��쓌,7.6,��
2020/11/29,14:50,0.677,0.973,0.616,1.212,0.865,0.384,0.679,0.638,��쓌,7.8,��
2020/11/29,15:00,0.678,0.974,0.615,1.211,0.864,0.385,0.678,0.638,��쓌,6.3,��
2020/11/29,15:10,0.679,0.977,0.616,1.212,0.863,0.385,0.678,0.639,��쓌,5.8,��
2020/11/29,15:20,0.677,0.978,0.615,1.215,0.865,0.385,0.680,0.638,��쓌,6.8,��
2020/11/29,15:30,0.675,0.978,0.616,1.213,0.864,0.384,0.680,0.639,��쓌,5.4,��
2020/11/29,15:40,0.678,0.976,0.615,1.214,0.862,0.385,0.680,0.638,��쓌,6.1,��
2020/11/29,15:50,0.677,0.977,0.617,1.215,0.863,0.385,0.679,0.636,��쓌,4.9,��
2020/11/29,16:00,0.677,0.978,0.615,1.213,0.862,0.384,0.681,0.638,��쓌,5.0,��
2020/11/29,16:10,0.678,0.976,0.617,1.213,0.862,0.384,0.679,0.639,��쓌,4.5,��
2020/11/29,16:20,0.676,0.980,0.615,1.215,0.862,0.385,0.679,0.637,��쓌,4.0,��
2020/11/29,16:30,0.678,0.978,0.616,1.212,0.864,0.383,0.679,0.637,��쓌,4.4,��
2020/11/29,16:40,0.678,0.979,0.614,1.210,0.864,0.384,0.678,0.638,��쓌,3.2,��
2020/11/29,16:50,0.677,0.979,0.614,1.211,0.863,0.384,0.678,0.638,��,3.2,��
2020/11/29,17:00,0.676,0.978,0.615,1.213,0.865,0.383,0.679,0.637,��,2.9,��
2020/11/29,17:10,0.677,0.978,0.615,1.212,0.864,0.384,0.679,0.636,�쐼,2.3,��
2020/11/29,17:20,0.677,0.978,0.616,1.212,0.865,0.385,0.678,0.638,���쐼,2.6,��
2020/11/29,17:30,0.676,0.977,0.615,1.211,0.863,0.383,0.680,0.638,���쐼,3.4,��
2020/11/29,17:40,0.676,0.978,0.613,1.213,0.865,0.384,0.678,0.638,��,2.9,��
2020/11/29,17:50,0.676,0.980,0.614,1.213,0.864,0.384,0.677,0.638,��,2.9,��
2020/11/29,18:00,0.676,0.977,0.613,1.212,0.864,0.385,0.678,0.637,���쐼,3.2,��
2020/11/29,18:10,0.676,0.978,0.615,1.211,0.865,0.382,0.679,0.638,���쐼,4.1,��
2020/11/29,18:20,0.673,0.977,0.614,1.211,0.866,0.384,0.678,0.638,��,4.4,��
2020/11/29,18:30,0.675,0.976,0.612,1.212,0.862,0.385,0.679,0.637,��,4.1,��
2020/11/29,18:40,0.674,0.978,0.612,1.213,0.864,0.384,0.677,0.637,���쐼,2.6,��
2020/11/29,18:50,0.674,0.974,0.614,1.212,0.862,0.383,0.677,0.639,��,3.1,��
2020/11/29,19:00,0.676,0.977,0.614,1.213,0.863,0.383,0.679,0.636,��,4.4,��
2020/11/29,19:10,0.675,0.976,0.614,1.212,0.862,0.384,0.679,0.638,��,4.8,��
2020/11/29,19:20,0.676,0.975,0.614,1.212,0.862,0.385,0.678,0.637,��,4.5,��
2020/11/29,19:30,0.675,0.976,0.615,1.211,0.863,0.385,0.679,0.636,��,4.1,��
2020/11/29,19:40,0.675,0.974,0.613,1.212,0.863,0.385,0.677,0.637,��,3.4,��
2020/11/29,19:50,0.677,0.974,0.615,1.212,0.862,0.384,0.678,0.636,���k��,2.6,��
2020/11/29,20:00,0.677,0.976,0.614,1.210,0.861,0.385,0.680,0.638,��,1.9,��
2020/11/29,20:10,0.676,0.973,0.615,1.211,0.863,0.383,0.677,0.638,���쐼,1.9,��
2020/11/29,20:20,0.675,0.975,0.614,1.212,0.862,0.385,0.678,0.639,���쐼,2.3,��
2020/11/29,20:30,0.676,0.974,0.616,1.212,0.863,0.385,0.678,0.635,���쐼,2.3,��
2020/11/29,20:40,0.674,0.977,0.614,1.211,0.862,0.384,0.677,0.637,��,1.2,��
2020/11/29,20:50,0.675,0.977,0.613,1.213,0.861,0.383,0.678,0.638,���k��,1.7,��
2020/11/29,21:00,0.675,0.974,0.614,1.212,0.862,0.382,0.678,0.637,��,1.5,��
2020/11/29,21:10,0.675,0.973,0.613,1.213,0.863,0.384,0.679,0.637,��,2.6,��
2020/11/29,21:20,0.677,0.975,0.614,1.210,0.864,0.384,0.678,0.637,���k��,2.5,��
2020/11/29,21:30,0.676,0.974,0.615,1.212,0.862,0.383,0.678,0.637,�쐼,1.5,��
2020/11/29,21:40,0.673,0.974,0.614,1.212,0.862,0.383,0.678,0.638,���쐼,2.0,��
2020/11/29,21:50,0.674,0.975,0.614,1.212,0.863,0.382,0.679,0.637,��,2.6,��
2020/11/29,22:00,0.675,0.975,0.614,1.212,0.862,0.382,0.677,0.637,��,1.5,��
2020/11/29,22:10,0.673,0.975,0.615,1.214,0.862,0.385,0.677,0.637,��,1.5,��
2020/11/29,22:20,0.674,0.973,0.615,1.211,0.861,0.383,0.676,0.636,���쐼,1.9,��
2020/11/29,22:30,0.674,0.974,0.613,1.214,0.863,0.385,0.678,0.637,���쐼,1.7,��
2020/11/29,22:40,0.675,0.974,0.613,1.214,0.863,0.384,0.678,0.636,���k��,1.5,��
2020/11/29,22:50,0.674,0.975,0.616,1.212,0.861,0.383,0.677,0.636,��,1.5,��
2020/11/29,23:00,0.674,0.972,0.614,1.212,0.863,0.384,0.677,0.637,��,1.4,��
2020/11/29,23:10,0.676,0.974,0.613,1.212,0.861,0.384,0.680,0.636,���k��,1.5,��
2020/11/29,23:20,0.675,0.974,0.613,1.213,0.864,0.383,0.677,0.637,��,1.7,��
2020/11/29,23:30,0.674,0.973,0.615,1.213,0.860,0.382,0.678,0.637,��,1.7,��
2020/11/29,23:40,0.673,0.972,0.613,1.211,0.862,0.384,0.679,0.637,��,2.3,��
2020/11/29,23:50,0.675,0.974,0.615,1.213,0.861,0.384,0.677,0.637,���쐼,2.5,��
